星链-11119 [DTC] (STARLINK-11119 [DTC] )

导读

STARLINK-11119是美国SpaceX公司星链(Starlink)星座的一颗卫星,于2024年6月24日发射入轨,属于星链全球低轨互联网星座的扩张组网卫星。星链项目旨在通过低地球轨道卫星星座,为全球提供高速低延迟的宽带互联网接入,尤其覆盖偏远地区。该卫星的成功发射,进一步推动星链星座规模扩张,截至2025年,星链已成为全球最大低轨卫星群,同时也引发太空轨道资源竞争、天文观测干扰等争议。

基本信息
目录编号:
60121
目录名称:
STARLINK-11119
国际标识:
2024-118J
轨道中心:
EARTH
卫星名称:
星链-11119 [DTC]
卫星全名:
星链-11119 [DTC] (STARLINK-11119 [DTC] )
卫星状态:
在轨 (已飞行803 天)
发射日期:
2024-06-24 UTC
国别 :
美国 (US)
星等 :
--
轨道信息
数据来源 国际轨道数据
星历时间: 2026-09-05T05:34:50+0800
12小时前
查看轨道信息
半长轴: 6737.872km
偏心率: 0.000103
轨道倾角: 53.160°
近地点辐角 82.707°
升交点赤经 57.569°
平近点角 277.407°
近地点: 359.04km
远地点: 360.43km
周期: 91.737分钟
每日圈数: 15.697073
详细信息
固有亮度:
5
最大亮度:
0.3
卫星平台:
Starlink v2.0 mini
覆盖范围:
全球
运营商:
太空探索技术公司
运营商所在国:
美国
制造商(研发单位):
太空探索技术公司
制造商所在国:
美国
使用方式:
暂无
卫星简介
星链(Starlink)计划是由太空探索技术公司(SpaceX)提出的一个巨型低轨卫星互联网星座项目,计划在2019年至2024年间在太空搭建由约1.2万颗卫星组成的“星链”网络,其中1584颗将部署在地球上空550千米处的近地轨道,并从2020年开始工作。该卫星仍在工作。
2D轨道图
3D轨道图
轨道高度分析图
轨道倾角分析图
轨道综合分析图
查看轨道综合分析图
交会数据列表
事件ID 空间交会对象 最接近时刻(TCA) 交会距离 交会风险概率(CRP) 交会风险指数(CRI) 操作
CDM_260903-001706-012106-256621
2026-09-03T
00:17:06+0000
2.603 km
极远距离
1.126799E-6 低风险 0.36